Key West, FL

12:42 PM EDT on September 27, 2016 (GMT -0400)
Key West International

Weather History for KEYW - November, 2013

Change the Weather History Date:

Monday, November 4, 2013

  Actual Average Record
Temperature  
Mean Temperature 78 °F 77 °F  
Max Temperature 83 °F 82 °F 87 °F (1988)
Min Temperature 72 °F 73 °F 57 °F (1966)
Degree Days  
Heating Degree Days 0 0  
Month to date heating degree days 0 0  
Since 1 July heating degree days 0 0  
Cooling Degree Days 13 12  
Month to date cooling degree days 55 51  
Year to date cooling degree days 4441 4259  
Growing Degree Days 27 (Base 50)    
Moisture  
Dew Point 66 °F    
Average Humidity 67    
Maximum Humidity 87    
Minimum Humidity 47    
Precipitation  
Precipitation 0.10 in 0.10 in 4.79 in (1963)
Month to date precipitation 0.10 0.41  
Year to date precipitation 41.45 35.72  
Snow  
Snow 0.00 in - - ()
Month to date snowfall 0.0  
Since 1 July snowfall 0.0  
Since 1 September snowfall 0.0  
Snow Depth 0.00 in    
Sea Level Pressure  
Sea Level Pressure 30.02 in    
Wind  
Wind Speed 13 mph (NE)    
Max Wind Speed 21 mph    
Max Gust Speed 32 mph    
Visibility 9 miles    
Events Rain    
T = Trace of Precipitation, MM = Missing Value Source: NWS Daily Summary

Daily Weather History Graph

Daily Weather History Graph

Search for Another Location

Airport or City:

Trip Planner

Search our weather history database for the weather conditions in past years. The results will help you decide how hot, cold, wet, or windy it might be!

Date:

Astronomy

Nov. 04, 2013 Rise Set
Actual Time 6:35 AM EST 5:44 PM EST
Civil Twilight 6:12 AM EST 6:08 PM EST
Nautical Twilight 5:45 AM EST 6:35 PM EST
Astronomical Twilight 5:18 AM EST 7:02 PM EST
Moon 7:39 AM EST (11/4) 6:55 PM EST (11/4)
Length of Visible Light 11h 56m
Length of Day
11h 09m
New Moon, 2% of the Moon is Illuminated
Nov 4
New Moon
Nov 10
First Quarter
Nov 17
Full
Nov 25
Last Quarter
Dec 2
New

Hourly Weather History & Observations

Time (EST) Temp. Heat Index Dew Point Humidity Pressure Visibility Wind Dir Wind Speed Gust Speed Precip Events Conditions
12:53 AM 73.9 °F - 64.0 °F 71% 30.00 in 10.0 mi NNE 15.0 mph 23.0 mph N/A   Overcast
1:53 AM 73.9 °F - 64.9 °F 73% 29.99 in 10.0 mi NNE 12.7 mph - N/A   Overcast
2:53 AM 73.9 °F - 64.9 °F 73% 29.98 in 10.0 mi NNE 11.5 mph 20.7 mph N/A   Clear
3:53 AM 73.9 °F - 66.0 °F 76% 29.98 in 10.0 mi NE 12.7 mph - N/A   Clear
4:53 AM 73.9 °F - 66.0 °F 76% 29.98 in 10.0 mi NE 13.8 mph 21.9 mph N/A   Clear
5:53 AM 73.9 °F - 66.0 °F 76% 29.99 in 10.0 mi NE 13.8 mph 23.0 mph N/A   Scattered Clouds
6:53 AM 73.9 °F - 66.0 °F 76% 30.01 in 10.0 mi NE 11.5 mph 20.7 mph N/A   Clear
7:53 AM 75.0 °F - 66.0 °F 73% 30.02 in 10.0 mi NE 13.8 mph 23.0 mph N/A   Clear
8:53 AM 77.0 °F - 66.0 °F 69% 30.05 in 10.0 mi NE 16.1 mph 26.5 mph N/A   Clear
9:53 AM 78.1 °F - 66.0 °F 66% 30.06 in 10.0 mi NE 17.3 mph 24.2 mph N/A   Clear
10:53 AM 79.0 °F - 64.9 °F 62% 30.06 in 10.0 mi NE 15.0 mph 21.9 mph N/A   Clear
11:53 AM 80.1 °F 81.9 °F 64.9 °F 60% 30.04 in 10.0 mi NE 11.5 mph 23.0 mph N/A   Clear
12:53 PM 82.0 °F 83.1 °F 63.0 °F 52% 30.01 in 10.0 mi ENE 12.7 mph 21.9 mph N/A   Clear
1:53 PM 82.0 °F 82.7 °F 61.0 °F 49% 30.00 in 10.0 mi ENE 12.7 mph 23.0 mph N/A   Clear
2:53 PM 82.0 °F 82.7 °F 61.0 °F 49% 29.99 in 10.0 mi NE 11.5 mph - N/A   Clear
3:53 PM 81.0 °F 81.9 °F 62.1 °F 52% 29.99 in 10.0 mi NE 12.7 mph 19.6 mph N/A   Clear
4:53 PM 80.1 °F 81.7 °F 64.0 °F 58% 29.99 in 10.0 mi NNE 10.4 mph - N/A   Clear
5:53 PM 78.1 °F - 64.9 °F 64% 30.00 in 10.0 mi NE 5.8 mph - N/A   Clear
6:53 PM 77.0 °F - 69.1 °F 76% 30.00 in 10.0 mi NE 6.9 mph - N/A   Clear
7:53 PM 75.9 °F - 69.1 °F 79% 30.02 in 10.0 mi NE 11.5 mph 21.9 mph N/A   Clear
8:46 PM 75.0 °F - 69.1 °F 82% 30.03 in 10.0 mi NE 13.8 mph 28.8 mph N/A   Mostly Cloudy
8:53 PM 75.0 °F - 69.1 °F 82% 30.03 in 10.0 mi NE 17.3 mph 27.6 mph N/A   Mostly Cloudy
9:10 PM 73.9 °F - 69.1 °F 85% 30.03 in 10.0 mi NE 19.6 mph 29.9 mph N/A   Mostly Cloudy
9:15 PM 73.9 °F - 69.1 °F 85% 30.03 in 10.0 mi NE 15.0 mph 29.9 mph N/A   Overcast
9:53 PM 73.0 °F - 70.0 °F 90% 30.04 in 8.0 mi NNE 11.5 mph 27.6 mph N/A Rain Light Rain
10:28 PM 72.0 °F - 70.0 °F 93% 30.04 in 3.0 mi NE 12.7 mph - N/A Rain Rain
10:39 PM 72.0 °F - 70.0 °F 93% 30.04 in 3.0 mi NE 9.2 mph - N/A Rain Heavy Rain
10:53 PM 73.0 °F - 70.0 °F 90% 30.03 in 9.0 mi NE 11.5 mph 23.0 mph N/A Rain Light Rain
11:00 PM 73.0 °F - 71.1 °F 93% 30.03 in 9.0 mi NE 13.8 mph 23.0 mph N/A Rain Light Rain
11:53 PM 73.9 °F - 70.0 °F 87% 30.02 in 6.0 mi ENE 13.8 mph 25.3 mph N/A Rain Light Rain